Home > Weather > Klosterneuburg > Past weeks

Flag for Austria Past Weather in Klosterneuburg, Lower Austria, Austria — Yesterday and Last 2 Weeks

Now
83 °F

Scattered clouds.


Feels Like: 83 °F
Forecast: 63 / 85 °F
Wind: 7 mph from West

Location: Wien / Hohe Warte

Current Time: Jul 29, 2016 at 4:13:23 PM

Latest Report: Jul 29, 2016 at 3:00 PM


Visibility: 34 mi

Pressure: 29.92 "Hg

Humidity: 47%

Dew Point: 61 °F

Location of KlosterneuburgLocation

Past Weather in Klosterneuburg — Graph

°F

Klosterneuburg Temperature Yesterday

Maximum temperature yesterday: 80 °F (at 6:00 PM)
Minimum temperature yesterday: 65 °F (at 5:00 AM)
Average temperature yesterday: 72 °F

High & Low Weather Summary for the Past Weeks

 TemperatureHumidityPressure
High86 °F (Jul 21, 3:00 PM)96% (Jul 23, 6:00 AM)30.22 "Hg (Jul 23, 6:00 AM)
Low55 °F (Jul 15, 6:00 AM)41% (Jul 19, 6:00 PM)29.84 "Hg (Jul 14, 2:00 PM)
Average72 °F68%30.03 "Hg
* Reported Jul 14 2:00 PM — Jul 29 2:00 PM, Klosterneuburg, Weather by CustomWeather, © 2016

Note: Actual official high and low records may vary slightly from our data, if they occured in-between our weather recording intervals... More about our weather records

Advertising

Klosterneuburg Weather History for the Previous 24 Hours

Scroll right to see more
 ConditionsComfort  
Time TempWeatherWind HumidityBarometerVisibility
2:00 PM
Fri, Jul 29
82 °FPassing clouds.7 mph49%29.93 "Hg31 mi
1:00 PM81 °FPassing clouds.7 mph53%29.93 "Hg31 mi
12:00 PM80 °FPassing clouds.5 mph54%29.96 "Hg31 mi
11:00 AM80 °FScattered clouds.6 mph53%29.96 "Hg31 mi
10:00 AM78 °FPassing clouds.6 mph58%29.96 "Hg25 mi
9:00 AM76 °FScattered clouds.3 mph61%29.97 "Hg22 mi
8:00 AM72 °FPartly sunny.3 mph69%29.97 "Hg25 mi
7:00 AM69 °FPartly sunny.5 mph77%29.97 "Hg22 mi
6:00 AM67 °FPartly sunny.5 mph77%29.96 "Hg28 mi
5:00 AM67 °FMild.5 mph80%29.96 "HgN/A
4:00 AM67 °FMild.5 mph80%29.97 "HgN/A
3:00 AM68 °FMild.3 mph79%29.96 "HgN/A
2:00 AM69 °FPassing clouds.3 mph76%29.96 "Hg25 mi
1:00 AM69 °FMild.3 mph73%29.96 "HgN/A
12:00 AM69 °FMild.No wind76%29.96 "HgN/A
11:00 PM
Thu, Jul 28
71 °FMild.3 mph68%29.96 "HgN/A
10:00 PM73 °FOvercast.5 mph66%29.96 "Hg19 mi
9:00 PM73 °FOvercast.5 mph66%29.96 "Hg16 mi
8:00 PM74 °FOvercast.5 mph67%29.96 "Hg22 mi
7:00 PM76 °FPartly sunny.5 mph63%29.95 "Hg25 mi
6:00 PM80 °FOvercast.7 mph55%29.94 "Hg19 mi
5:00 PM79 °FOvercast.5 mph58%29.95 "Hg25 mi
4:00 PM79 °FOvercast.3 mph60%29.95 "Hg25 mi
Weather by CustomWeather, © 2016

See weather overviewHow to use our weather pages